Lake Elmo, MN

4:03 PM CDT on September 30, 2016 (GMT -0500)
St. Paul Lake Elmo

Weather History for K21D - April, 2014

Change the Weather History Date:

Wednesday, April 23, 2014

  Actual Average (KSTP) Record (KSTP)
Temperature  
Mean Temperature 42 °F -  
Max Temperature 48 °F 59 °F 86 °F (2009)
Min Temperature 35 °F 38 °F 28 °F (2015)
Degree Days  
Heating Degree Days 24    
Moisture  
Dew Point 32 °F    
Average Humidity 69    
Maximum Humidity 87    
Minimum Humidity 50    
Precipitation  
Precipitation 0.04 in - - ()
Sea Level Pressure  
Sea Level Pressure 30.06 in    
Wind  
Wind Speed 6 mph (SE)    
Max Wind Speed 15 mph    
Max Gust Speed 21 mph    
Visibility 10 miles    
Events Rain    
Averages and records for this station are not official NWS values.
T = Trace of Precipitation, MM = Missing Value Source: NWS Daily Summary

Daily Weather History Graph

Daily Weather History Graph

Search for Another Location

Airport or City:

Trip Planner

Search our weather history database for the weather conditions in past years. The results will help you decide how hot, cold, wet, or windy it might be!

Date:

Astronomy

Apr. 23, 2014 Rise Set
Actual Time 6:13 AM CDT 8:07 PM CDT
Civil Twilight 5:41 AM CDT 8:38 PM CDT
Nautical Twilight 5:03 AM CDT 9:17 PM CDT
Astronomical Twilight 4:21 AM CDT 9:59 PM CDT
Moon 3:01 AM CDT (4/23) 2:00 PM CDT (4/23)
Length of Visible Light 14h 56m
Length of Day
13h 53m
Waning Crescent, 34% of the Moon is Illuminated
Apr 23
Waning Crescent
Apr 29
New
May 6
First Quarter
May 14
Full
May 21
Last Quarter

Hourly Weather History & Observations

Time (CDT) Temp. Windchill Dew Point Humidity Pressure Visibility Wind Dir Wind Speed Gust Speed Precip Events Conditions
12:11 AM 35.6 °F - 32.0 °F 87% 30.10 in 10.0 mi Calm Calm - N/A   Clear
12:31 AM 35.6 °F - 30.2 °F 81% 30.10 in 10.0 mi Calm Calm - N/A   Clear
12:51 AM 35.6 °F - 32.0 °F 87% 30.10 in 10.0 mi Calm Calm - N/A   Clear
1:11 AM 35.6 °F - 32.0 °F 87% 30.10 in 10.0 mi Calm Calm - N/A   Clear
1:31 AM 35.6 °F 32.8 °F 30.2 °F 81% 30.09 in 10.0 mi East 3.5 mph - N/A   Clear
1:51 AM 39.2 °F 35.0 °F 28.4 °F 65% 30.09 in 10.0 mi East 5.8 mph - N/A   Clear
2:10 AM 41.0 °F 37.1 °F 28.4 °F 61% 30.09 in 10.0 mi East 5.8 mph - N/A   Clear
2:31 AM 39.2 °F - 28.4 °F 65% 30.10 in 10.0 mi Calm Calm - N/A   Clear
2:51 AM 39.2 °F 37.0 °F 28.4 °F 65% 30.10 in 10.0 mi ESE 3.5 mph - N/A   Clear
3:10 AM 41.0 °F 36.4 °F 28.4 °F 61% 30.11 in 10.0 mi ESE 6.9 mph - N/A   Clear
3:31 AM 41.0 °F 36.4 °F 28.4 °F 61% 30.10 in 10.0 mi ESE 6.9 mph - N/A   Clear
3:51 AM 41.0 °F 35.8 °F 28.4 °F 61% 30.10 in 10.0 mi ESE 8.1 mph - N/A   Clear
4:10 AM 41.0 °F 37.1 °F 28.4 °F 61% 30.10 in 10.0 mi SE 5.8 mph - N/A   Clear
4:31 AM 41.0 °F 37.1 °F 28.4 °F 61% 30.11 in 10.0 mi ESE 5.8 mph - N/A   Clear
5:10 AM 41.0 °F 37.1 °F 28.4 °F 61% 30.10 in 10.0 mi SE 5.8 mph - N/A   Clear
5:31 AM 41.0 °F 37.1 °F 28.4 °F 61% 30.11 in 10.0 mi SE 5.8 mph - N/A   Clear
5:51 AM 41.0 °F 37.1 °F 28.4 °F 61% 30.11 in 10.0 mi SE 5.8 mph - N/A   Clear
6:10 AM 42.8 °F 38.0 °F 28.4 °F 57% 30.11 in 10.0 mi SE 8.1 mph - N/A   Clear
6:31 AM 41.0 °F 38.0 °F 28.4 °F 61% 30.11 in 10.0 mi SSE 4.6 mph - N/A   Clear
6:51 AM 41.0 °F 38.0 °F 28.4 °F 61% 30.11 in 10.0 mi SE 4.6 mph - N/A   Clear
7:11 AM 42.8 °F 38.6 °F 28.4 °F 57% 30.11 in 10.0 mi SE 6.9 mph - N/A   Clear
7:31 AM 42.8 °F 38.6 °F 28.4 °F 57% 30.12 in 10.0 mi SSE 6.9 mph - N/A   Clear
7:50 AM 42.8 °F 38.0 °F 28.4 °F 57% 30.12 in 10.0 mi SE 8.1 mph - N/A   Clear
8:11 AM 42.8 °F 37.5 °F 28.4 °F 57% 30.11 in 10.0 mi SE 9.2 mph - N/A   Clear
8:31 AM 44.6 °F 39.2 °F 30.2 °F 57% 30.12 in 10.0 mi SSE 10.4 mph - N/A   Clear
8:50 AM 44.6 °F 38.8 °F 30.2 °F 57% 30.11 in 10.0 mi SE 11.5 mph - N/A   Clear
9:11 AM 44.6 °F 40.2 °F 30.2 °F 57% 30.10 in 10.0 mi SE 8.1 mph - N/A   Clear
9:31 AM 44.6 °F 38.8 °F 28.4 °F 53% 30.10 in 10.0 mi SSE 11.5 mph - N/A   Clear
9:50 AM 44.6 °F 38.8 °F 30.2 °F 57% 30.10 in 10.0 mi SSE 11.5 mph 17.3 mph N/A   Clear
10:11 AM 46.4 °F 40.7 °F 30.2 °F 53% 30.11 in 10.0 mi SE 12.7 mph 16.1 mph N/A   Clear
10:31 AM 46.4 °F 40.4 °F 28.4 °F 50% 30.12 in 10.0 mi SSE 13.8 mph - N/A   Scattered Clouds
10:51 AM 46.4 °F 41.1 °F 30.2 °F 53% 30.12 in 10.0 mi SSE 11.5 mph - N/A   Clear
11:11 AM 46.4 °F 41.1 °F 28.4 °F 50% 30.12 in 10.0 mi SSE 11.5 mph 20.7 mph N/A   Clear
11:31 AM 46.4 °F 41.5 °F 30.2 °F 53% 30.11 in 10.0 mi SE 10.4 mph 18.4 mph N/A   Clear
11:51 AM 46.4 °F 41.1 °F 30.2 °F 53% 30.10 in 10.0 mi SE 11.5 mph - N/A   Clear
12:11 PM 48.2 °F - 30.2 °F 50% 30.09 in 10.0 mi South 11.5 mph - N/A   Clear
12:30 PM 48.2 °F - 30.2 °F 50% 30.08 in 10.0 mi SSE 12.7 mph - N/A   Scattered Clouds
12:51 PM 46.4 °F 41.5 °F 30.2 °F 53% 30.08 in 10.0 mi SSE 10.4 mph 17.3 mph N/A   Mostly Cloudy
1:11 PM 46.4 °F 41.5 °F 30.2 °F 53% 30.08 in 10.0 mi SSE 10.4 mph - N/A   Overcast
1:30 PM 46.4 °F 41.9 °F 30.2 °F 53% 30.07 in 10.0 mi SE 9.2 mph - N/A   Overcast
1:51 PM 46.4 °F 41.5 °F 30.2 °F 53% 30.07 in 10.0 mi SSE 10.4 mph - N/A   Overcast
2:11 PM 44.6 °F 37.8 °F 32.0 °F 61% 30.07 in 10.0 mi SSE 15.0 mph 18.4 mph N/A Rain Light Rain
2:30 PM 44.6 °F 39.2 °F 35.6 °F 71% 30.07 in 10.0 mi South 10.4 mph 20.7 mph N/A Rain Rain
2:51 PM 42.8 °F 37.5 °F 35.6 °F 76% 30.07 in 10.0 mi SSE 9.2 mph 17.3 mph N/A Rain Light Rain
3:31 PM 41.0 °F 34.3 °F 35.6 °F 81% 30.06 in 10.0 mi SSE 11.5 mph - N/A Rain Rain
3:51 PM 41.0 °F 37.1 °F 37.4 °F 87% 30.06 in 10.0 mi SE 5.8 mph - 0.01 in   Drizzle
4:10 PM 41.0 °F 35.8 °F 37.4 °F 87% 30.04 in 10.0 mi ESE 8.1 mph - N/A   Drizzle
4:31 PM 41.0 °F 35.8 °F 37.4 °F 87% 30.04 in 10.0 mi ESE 8.1 mph - N/A Rain Rain
4:51 PM 41.0 °F 34.7 °F 37.4 °F 87% 30.00 in 10.0 mi East 10.4 mph 17.3 mph N/A Rain Light Rain
5:11 PM 41.0 °F 34.7 °F 37.4 °F 87% 29.99 in 10.0 mi East 10.4 mph - N/A Rain Light Rain
5:31 PM 41.0 °F 35.2 °F 37.4 °F 87% 29.98 in 10.0 mi East 9.2 mph - N/A Rain Light Rain
5:51 PM 41.0 °F 34.3 °F 37.4 °F 87% 29.97 in 10.0 mi East 11.5 mph - N/A Rain Light Rain
6:11 PM 41.0 °F 35.8 °F 37.4 °F 87% 29.97 in 10.0 mi ESE 8.1 mph - N/A Rain Light Rain
6:50 PM 41.0 °F 34.7 °F 37.4 °F 87% 29.97 in 10.0 mi East 10.4 mph - N/A Rain Light Rain
7:11 PM 41.0 °F 34.3 °F 37.4 °F 87% 29.96 in 10.0 mi East 11.5 mph - N/A Rain Light Rain
7:50 PM 42.8 °F 36.2 °F 37.4 °F 81% 29.96 in 10.0 mi ESE 12.7 mph 17.3 mph N/A Rain Light Rain
8:11 PM 42.8 °F 37.5 °F 37.4 °F 81% 29.97 in 10.0 mi ESE 9.2 mph - N/A Rain Rain
8:31 PM 41.0 °F 36.4 °F 37.4 °F 87% 29.97 in 7.0 mi ESE 6.9 mph - 0.02 in Rain Light Rain
8:50 PM 41.0 °F 35.2 °F 37.4 °F 87% 29.97 in 7.0 mi East 9.2 mph 18.4 mph 0.03 in Rain Rain
9:11 PM 41.0 °F 33.5 °F 37.4 °F 87% 29.96 in 10.0 mi East 13.8 mph 18.4 mph N/A   Overcast
9:30 PM 41.0 °F 33.5 °F 37.4 °F 87% 29.95 in 10.0 mi East 13.8 mph 20.7 mph N/A   Overcast
9:51 PM 42.8 °F 36.6 °F 37.4 °F 81% 29.96 in 10.0 mi ESE 11.5 mph 16.1 mph N/A   Overcast
10:11 PM 42.8 °F 37.0 °F 37.4 °F 81% 29.94 in 10.0 mi ESE 10.4 mph - N/A   Overcast
10:30 PM 42.8 °F 37.0 °F 37.4 °F 81% 29.95 in 10.0 mi ESE 10.4 mph - N/A   Overcast
10:51 PM 42.8 °F 38.0 °F 37.4 °F 81% 29.96 in 10.0 mi East 8.1 mph - N/A   Overcast
11:11 PM 42.8 °F 37.5 °F 37.4 °F 81% 29.96 in 10.0 mi ESE 9.2 mph - N/A   Overcast
11:30 PM 42.8 °F 37.5 °F 37.4 °F 81% 29.96 in 10.0 mi East 9.2 mph - N/A   Overcast
11:51 PM 42.8 °F 37.5 °F 37.4 °F 81% 29.95 in 10.0 mi East 9.2 mph - N/A   Overcast